Content
SEND FEEDBACK

Daily
Averages
Monthly
Summary
Belarus

CHERNE, BELARUS


Home > Europe > Belarus
Elevation: 479 feet     Latitude: 52 01N     Longitude: 023 40E

WEATHER
 
SELECT A DAY
Number of Records: 116,585;   Date Range: 12/20/99 - 7/23/14
 
SHARE

PRINT THIS DATA

[ ← Previous Day ]
WEATHER ALMANAC - JANUARY 23, 2013
[ Next Day → ]
[ °C ]   °F
Weather ElementAverageHighLow
Temperature14.5 °F18 °F (6:00 pm) (6:00 am)
Dewpoint10.8 °F15 °F (6:00 pm) (7:00 pm)
Humidity83.9 %92 % (5:00 am)79 % (12:00 pm)
Barometer29.83 in29.91 in (9:00 pm)29.80 in (5:00 am)
Wind Speed7.2 mph8.9 mph (5:00 am)
Wind Gust15.7 mph (2:30 pm)
Weather ElementAverage
Visibility2.4 mi
Wind DirectionENE (69.7 °)

Weather ElementTotal
Precipitation---
Heating Degree Days56 (Base 65)
Averaged from 29 records on January 23, 2013
WEATHER CONDITIONS BREAKOUT
WIND DIRECTION BREAKOUT
WEATHER BY HOUR - JANUARY 23, 2013
[ °C ]   °F
Local TimeTemperatureDewpointHumidityBarometerVisibilityWind DirectionWind SpeedGust SpeedPrecipitationEventsConditions
3:00 AM14.0 °F11.0 °F82 %29.86 in3.0 miENE (60°)4.5 mphSnowLight Snow
5:00 AM12.2 °F10.4 °F92 %29.80 inNE (40°)8.9 mphSnowLight Snow
6:00 AM12.0 °F10.0 °F85 %29.86 in5.0 miEast (100°)4.5 mphSnowLight Snow
6:00 AM0.0 °F0.0 °F29.80 in3.1 miENE (70°)8.9 mphScattered Clouds
7:00 AM12.2 °F8.6 °F85 %29.80 in1.3 miNE (50°)6.7 mphSnowLight Snow
8:00 AM12.2 °F8.6 °F85 %29.80 in3.1 miNE (50°)6.7 mphSnowLight Snow Showers
9:00 AM12.2 °F8.6 °F85 %29.80 in3.1 miNE (50°)6.7 mphSnowLight Snow Showers
9:00 AM13.0 °F10.0 °F83 %29.87 in2.0 miEast (80°)4.5 mphSnowSnow
9:25 AM12.2 °F8.6 °F85 %29.80 in1.3 miENE (70°)6.7 mphSnowLight Snow Showers
10:00 AM14.0 °F10.4 °F86 %29.80 in1.0 miENE (70°)6.7 mphSnowSnow Showers
10:30 AM14.0 °F10.4 °F86 %29.83 in1.6 miENE (70°)6.7 mphSnowLight Snow Showers
11:00 AM15.8 °F12.2 °F86 %29.83 in1.3 miENE (60°)8.9 mphSnowLight Snow Showers
11:05 AM15.8 °F12.2 °F86 %29.83 inENE (70°)6.7 mphSnowLight Snow Showers
11:30 AM15.8 °F12.2 °F86 %29.83 in2.2 miENE (70°)6.7 mphSnowLight Snow Showers
12:00 PM15.8 °F10.4 °F79 %29.83 in3.7 miENE (70°)8.9 mphPartly Cloudy
12:00 PM15.0 °F12.0 °F82 %29.89 in3.0 miEast (90°)6.7 mphSnowLight Snow
12:30 PM15.8 °F10.4 °F79 %29.83 inENE (70°)8.9 mphSnowLight Snow Showers
1:00 PM15.8 °F10.4 °F79 %29.83 inEast (80°)8.9 mphSnowLight Snow Showers
1:30 PM15.8 °F10.4 °F79 %29.83 inENE (70°)8.9 mphSnowLight Snow
1:45 PM15.8 °F10.4 °F79 %29.83 in1.3 miENE (70°)8.9 mphSnowLight Snow
2:00 PM15.8 °F12.2 °F86 %29.83 in1.7 miENE (60°)8.9 mphSnowLight Snow
2:30 PM15.8 °F12.2 °F86 %29.83 in1.6 miENE (70°)8.9 mph15.7 mphSnowLight Snow
3:00 PM15.8 °F12.2 °F86 %29.83 in1.4 miENE (60°)6.7 mphSnowLight Snow
3:00 PM17.0 °F14.0 °F83 %29.87 in3.0 miEast (90°)6.7 mphSnowLight Snow
3:30 PM15.8 °F12.2 °F86 %29.83 in1.1 miENE (70°)6.7 mphSnowSnow
4:00 PM17.6 °F12.2 °F79 %29.83 in1.2 miENE (60°)8.9 mphSnowSnow
4:30 PM17.6 °F12.2 °F79 %29.83 inENE (70°)8.9 mphSnowLight Snow
6:00 PM18.0 °F15.0 °F85 %29.89 in6.0 miEast (90°)4.5 mphSnowLight Snow
9:00 PM17.0 °F15.0 °F91 %29.91 in4.0 miEast (90°)4.5 mphSnowLight Snow
Hourly data recorded from UMBB, located miles away from Cherne, Belarus







STORIES FROM OUR PARTNERS